Flag for Angola Weather past 2 weeks in Huambo, Angola

Now
70 °F

Partly sunny.


Feels Like: 70 °F
Forecast: 39 / 80 °F
Wind: 5 mph from Southeast

Location: Luanda Airport

Current Time: Jul 24, 2014 at 9:50:16 AM

Latest Report: Jul 24, 2014 at 9:00 AM


Visibility: 5 mi

Pressure: 30.15 "Hg

Humidity: 78%

Dew point: 63 °F

Location of HuamboLocation

Historic Weather in Huambo — Graph

°F

Huambo temperature yesterday

Maximum temperature yesterday: 77 °F (at 12:00 PM)
Minimum temperature yesterday: 66 °F (at 12:00 AM)
Average temperature yesterday: 70 °F

Past Weeks' High & Low Weather Summary

 TemperatureHumidityPressure
High84 °F (Jul 14, 2:00 AM)100% (Jul 12, 1:00 AM)30.30 "Hg (Jul 12, 1:00 AM)
Low63 °F (Jul 10, 4:00 AM)38% (Jul 19, 7:00 PM)29.92 "Hg (Jul 14, 4:05 PM)
Average69 °F78%30.04 "Hg
* Reported Jul 9 9:00 AM — Jul 24 8:00 AM, Huambo, Weather by CustomWeather, © 2014

Note: Actual official high and low records may vary slightly from our data, if they occured in-between our weather recording intervals... More about our weather records

Advertising

Huambo weather history for previous 24 hours

 ConditionsComfort  
Time TempWeatherWind HumidityBarometerVisibility
8:00 AM
Jul 24
68 °FPartly sunny.5 mph83%30.12 "Hg5 mi
6:00 AM66 °FPassing clouds.5 mph88%30.09 "HgN/A
5:00 AM64 °FPassing clouds.5 mph94%30.07 "Hg4 mi
4:00 AM64 °FPassing clouds.3 mph94%30.07 "HgN/A
3:00 AM64 °FClear.2 mph88%30.07 "Hg10 mi
2:00 AM64 °FClear.5 mph88%30.09 "Hg10 mi
1:00 AM66 °FPassing clouds.5 mph88%30.09 "HgN/A
12:00 AM66 °FPassing clouds.5 mph88%30.09 "HgN/A
6:00 PM
Jul 23
70 °FPartly sunny.8 mph78%30.01 "HgN/A
5:00 PM72 °FPartly sunny.9 mph73%29.98 "HgN/A
4:00 PM73 °FBroken clouds.9 mph69%29.98 "HgN/A
3:00 PM75 °FBroken clouds.10 mph65%29.98 "HgN/A
2:00 PM73 °FPartly sunny.12 mph74%30.01 "HgN/A
12:00 PM77 °FPartly sunny.5 mph61%30.04 "HgN/A
11:00 AM75 °FPartly sunny.6 mph65%30.07 "Hg4 mi
10:00 AM73 °FFog.5 mph69%30.09 "Hg2 mi
Weather by CustomWeather, © 2014

See weather overviewHow to use our weather pages